Location: Harwich
(41.6860°N, 70.0760°W)
Time: 07:29:30
(UTC-04:00)

Cosmos 2228 - Visible Passes

Search period start: 25 August 2016 00:00
Search period end: 04 September 2016 00:00
Orbit: 591 x 620 km, 82.5° (Epoch: 24 August)

Date Brightness Start Highest point End Pass type
(mag) Time Alt. Az. Time Alt. Az. Time Alt. Az.
25 Aug 4.5 22:29:02 32° N 22:29:02 32° N 22:31:26 10° N visible
26 Aug 5.1 21:05:00 13° ENE 21:05:00 13° ENE 21:05:46 10° NE visible
26 Aug 4.8 22:41:50 29° NNW 22:41:50 29° NNW 22:44:23 10° N visible
27 Aug 4.6 21:17:46 21° NE 21:17:46 21° NE 21:19:41 10° NNE visible
27 Aug 5.3 22:54:37 22° NW 22:54:37 22° NW 22:57:06 10° NNW visible
28 Aug 4.0 21:30:30 33° NE 21:30:30 33° NE 21:33:11 10° NNE visible
28 Aug 5.7 23:07:20 15° WNW 23:07:20 15° WNW 23:09:24 10° NW visible
29 Aug 3.5 21:43:11 52° NNE 21:43:11 52° NNE 21:46:28 10° N visible
30 Aug 5.1 20:18:58 11° ENE 20:18:58 11° ENE 20:19:38 10° ENE visible
30 Aug 3.6 21:55:49 54° NW 21:55:49 54° NW 21:59:34 10° N visible
31 Aug 4.5 20:31:32 19° E 20:31:32 19° E 20:34:15 10° NE visible
31 Aug 4.5 22:08:23 33° W 22:08:32 33° WNW 22:12:28 10° N visible
01 Sep 3.7 20:44:01 31° E 20:44:12 31° E 20:48:00 10° NNE visible
01 Sep 5.3 22:20:51 19° W 22:21:50 21° WNW 22:25:05 10° NNW visible
02 Sep 3.0 20:56:23 46° SE 20:57:13 55° E 21:01:26 10° NNE visible
02 Sep 5.9 22:33:17 10° W 22:35:12 13° WNW 22:37:07 10° NW visible
03 Sep 2.9 21:08:36 36° S 21:10:19 85° W 21:14:39 10° N visible
